Location: Bílinka
(49.3579°N, 14.3767°E)
Time: 01:34:24
(UTC+00:00)

Okean O Rocket - Pass Details

Date: 28 January 2023
Orbit: 620 x 643 km, 98.1° (Epoch: 30 March)

Event Time Altitude Azimuth Distance (km) Brightness Sun altitude
Exits shadow 17:09:47 - 129° (SE) 2,404 4.2 -12.8°
Reaches altitude 10° 17:10:52 10° 122° (ESE) 2,007 3.8 -12.9°
Maximum altitude 17:14:35 28° 64° (ENE) 1,196 2.5 -13.5°
Drops below altitude 10° 17:18:20 10° 6° (N) 2,033 4.0 -14.1°
Sets 17:20:47 0° 355° (N) 2,951 5.0 -14.5°
